Chinook Pass
Chinook Pass
Latest observation 08/31 20:00 PDT
| Time (PDT) | Temp °F 6240' | Temp °F 5500' | RH % 6240' | RH % 5500' | Spd mph 6240' | Gust mph 6240' | Dir ° 6240' | Pcp1 in 5500' | PcpSum in 5500' | SnoHt in 5500' | EqTemp °F 5500' |
|---|---|---|---|---|---|---|---|---|---|---|---|
| 08/31 20:00 | 56 | 59 | 45 | 41 | 12 | 19 | 59 | 0.00 | 0.18 | -0.8 | 58 |
| 08/31 19:00 | 58 | 60 | 42 | 40 | 6 | 16 | 56 | 0.00 | 0.18 | -0.6 | 61 |
| 08/31 18:00 | 60 | 63 | 37 | 37 | 7 | 20 | 78 | 0.00 | 0.18 | -0.7 | 66 |
| 08/31 17:00 | 66 | 69 | 26 | 28 | 11 | 30 | 222 | 0.00 | 0.18 | -0.4 | 83 |
| 08/31 16:00 | 65 | 68 | 27 | 29 | 9 | 25 | 219 | 0.00 | 0.18 | -0.7 | 71 |
| 08/31 15:00 | 65 | 68 | 30 | 31 | 7 | 20 | 181 | 0.00 | 0.18 | -0.9 | 81 |
| 08/31 14:00 | 63 | 66 | 34 | 35 | 13 | 30 | 103 | 0.00 | 0.18 | -0.7 | 83 |
| 08/31 13:00 | 63 | 63 | 39 | 41 | 10 | 24 | 71 | 0.00 | 0.18 | -1.3 | 78 |
| 08/31 12:00 | 61 | 59 | 45 | 50 | 12 | 18 | 70 | 0.00 | 0.18 | -0.3 | 76 |
| 08/31 11:00 | 54 | 55 | 60 | 59 | 16 | 25 | 70 | 0.00 | 0.18 | -1.1 | 70 |
| 08/31 10:00 | 55 | 53 | 53 | 63 | 17 | 24 | 79 | 0.00 | 0.18 | -0.6 | 55 |
| 08/31 09:00 | 53 | 52 | 56 | 65 | 15 | 21 | 68 | 0.00 | 0.18 | -0.8 | 53 |
| 08/31 08:00 | 51 | 50 | 55 | 69 | 16 | 24 | 72 | 0.00 | 0.18 | -0.3 | 51 |
| 08/31 07:00 | 50 | 48 | 57 | 68 | 14 | 22 | 81 | 0.00 | 0.18 | -0.4 | 47 |
| 08/31 06:00 | 50 | 50 | 59 | 62 | 12 | 23 | 85 | 0.00 | 0.18 | -0.6 | 47 |
| 08/31 05:00 | 51 | 51 | 52 | 58 | 8 | 12 | 94 | 0.00 | 0.18 | -0.7 | 48 |
| 08/31 04:00 | 52 | 51 | 53 | 56 | 15 | 22 | 157 | 0.00 | 0.18 | -0.3 | 48 |
| 08/31 03:00 | 52 | 50 | 52 | 61 | 20 | 25 | 167 | 0.00 | 0.18 | -0.5 | 48 |
| 08/31 02:00 | 51 | 50 | 59 | 67 | 15 | 23 | 150 | 0.00 | 0.18 | -0.6 | 47 |
| 08/31 01:00 | 52 | 50 | 62 | 68 | 13 | 18 | 185 | 0.00 | 0.18 | -0.5 | 47 |
| 08/31 00:00 | 52 | 50 | 60 | 70 | 10 | 13 | 170 | 0.00 | 0.18 | -1.0 | 46 |
| 08/30 23:00 | 51 | 49 | 67 | 73 | 3 | 11 | 98 | 0.00 | 0.18 | -0.5 | 46 |
| 08/30 22:00 | 50 | 49 | 69 | 74 | 0 | 0 | 123 | 0.00 | 0.18 | -0.9 | 46 |
| 08/30 21:00 | 48 | 47 | 76 | 80 | 6 | 15 | 302 | 0.00 | 0.18 | -0.8 | 45 |
| 08/30 20:00 | 44 | 46 | 97 | 80 | 11 | 20 | 290 | 0.00 | 0.18 | -0.9 | 46 |
| 08/30 19:00 | 48 | 49 | 79 | 74 | 13 | 21 | 281 | 0.00 | 0.18 | -1.0 | 49 |
| 08/30 18:00 | 49 | 51 | 76 | 69 | 12 | 20 | 274 | 0.00 | 0.18 | -0.9 | 54 |
| 08/30 17:00 | 52 | 54 | 68 | 61 | 13 | 20 | 272 | 0.00 | 0.18 | -1.2 | 67 |
| 08/30 16:00 | 51 | 53 | 70 | 64 | 10 | 16 | 269 | 0.00 | 0.18 | -1.1 | 58 |
| 08/30 15:00 | 53 | 52 | 65 | 66 | 9 | 15 | 267 | 0.00 | 0.18 | -1.4 | 63 |
| 08/30 14:00 | 50 | 52 | 68 | 70 | 10 | 17 | 272 | 0.00 | 0.18 | -1.2 | 65 |
| 08/30 13:00 | 48 | 49 | 71 | 74 | 12 | 17 | 276 | 0.00 | 0.18 | -1.4 | 64 |
| 08/30 12:00 | 44 | 46 | 85 | 81 | 9 | 17 | 280 | 0.00 | 0.18 | -1.0 | 61 |
| 08/30 11:00 | 40 | 43 | 98 | 82 | 5 | 13 | 310 | 0.00 | 0.18 | -1.3 | 57 |
| 08/30 10:00 | 38 | 40 | 100 | 92 | 9 | 19 | 305 | 0.00 | 0.18 | -1.4 | 44 |
| 08/30 09:00 | 35 | 37 | 100 | 96 | 9 | 19 | 283 | 0.00 | 0.18 | -1.0 | 43 |
| 08/30 08:00 | 34 | 37 | 100 | 96 | 8 | 14 | 279 | 0.00 | 0.18 | -1.5 | 39 |
| 08/30 07:00 | 34 | 36 | 100 | 96 | 9 | 14 | 271 | 0.00 | 0.18 | 0.9 | 36 |
| 08/30 06:00 | 34 | 36 | 100 | 96 | 9 | 14 | 254 | 0.00 | 0.18 | 0.4 | 37 |
| 08/30 05:00 | 34 | 36 | 100 | 96 | 13 | 22 | 271 | 0.00 | 0.18 | -0.2 | 37 |
| 08/30 04:00 | 35 | 37 | 100 | 96 | 11 | 16 | 259 | 0.00 | 0.18 | -1.1 | 37 |
| 08/30 03:00 | 35 | 37 | 100 | 96 | 8 | 13 | 259 | 0.00 | 0.18 | -0.3 | 38 |
| 08/30 02:00 | 36 | 38 | 100 | 95 | 8 | 14 | 247 | 0.00 | 0.18 | -0.9 | 38 |
| 08/30 01:00 | 36 | 38 | 100 | 95 | 11 | 21 | 207 | 0.00 | 0.18 | -0.5 | 39 |
| 08/30 00:00 | 36 | 39 | 100 | 95 | 12 | 22 | 210 | 0.00 | 0.18 | -0.4 | 39 |
| 08/29 23:00 | 37 | 39 | 100 | 95 | 9 | 16 | 218 | 0.00 | 0.18 | -1.3 | 40 |
| 08/29 22:00 | 36 | 39 | 100 | 95 | 9 | 15 | 241 | 0.00 | 0.18 | -0.5 | 40 |
| 08/29 21:00 | 37 | 40 | 100 | 95 | 12 | 16 | 243 | 0.00 | 0.18 | -0.3 | 40 |
| 08/29 20:00 | 37 | 40 | 100 | 94 | 12 | 22 | 246 | 0.00 | 0.18 | -0.5 | 40 |
| 08/29 19:00 | 37 | 40 | 99 | 92 | 11 | 20 | 274 | 0.00 | 0.18 | -1.6 | 42 |
| 08/29 18:00 | 37 | 40 | 100 | 93 | 11 | 27 | 250 | 0.00 | 0.18 | -1.6 | 41 |
| 08/29 17:00 | 38 | 41 | 97 | 92 | 9 | 16 | 267 | 0.00 | 0.18 | -1.0 | 44 |
| 08/29 16:00 | 38 | 41 | 100 | 93 | 11 | 21 | 218 | 0.00 | 0.18 | -0.7 | 44 |
| 08/29 15:00 | 42 | 41 | 84 | 91 | 12 | 21 | 231 | 0.00 | 0.18 | -1.6 | 48 |
| 08/29 14:00 | 39 | 42 | 98 | 90 | 12 | 23 | 235 | 0.00 | 0.18 | -1.1 | 50 |
| 08/29 13:00 | 39 | 40 | 100 | 90 | 7 | 16 | 252 | 0.00 | 0.18 | -1.2 | 49 |
| 08/29 12:00 | 37 | 39 | 100 | 88 | 10 | 17 | 277 | 0.00 | 0.18 | -0.4 | 45 |
| 08/29 11:00 | 34 | 37 | 100 | 89 | 13 | 24 | 273 | 0.01 | 0.18 | -1.0 | 40 |
| 08/29 10:00 | 35 | 37 | 100 | 95 | 13 | 22 | 251 | 0.00 | 0.17 | 0.4 | 40 |
| 08/29 09:00 | 34 | 36 | 100 | 95 | 18 | 29 | 258 | 0.09 | 0.17 | -0.9 | 38 |
| 08/29 08:00 | 33 | 36 | 100 | 94 | 16 | 28 | 235 | 0.08 | 0.08 | -0.2 | 37 |
| 08/29 07:00 | 35 | 37 | 100 | 95 | 10 | 15 | 232 | 0.00 | 0.00 | -1.3 | 37 |
| 08/29 06:00 | 35 | 37 | 100 | 95 | 10 | 17 | 256 | 0.00 | 0.00 | -1.4 | 38 |
| 08/29 05:00 | 36 | 38 | 100 | 95 | 8 | 15 | 214 | 0.00 | 0.00 | -1.1 | 39 |
| 08/29 04:00 | 37 | 39 | 100 | 94 | 11 | 24 | 225 | 0.00 | 0.00 | -1.2 | 40 |
| 08/29 03:00 | 37 | 40 | 100 | 94 | 12 | 27 | 209 | 0.00 | 0.00 | -0.9 | 40 |
| 08/29 02:00 | 38 | 40 | 100 | 94 | 7 | 18 | 211 | 0.00 | 0.00 | -0.7 | 41 |
| 08/29 01:00 | 39 | 41 | 100 | 93 | 8 | 21 | 216 | 0.00 | 0.00 | -0.7 | 42 |
| 08/29 00:00 | 39 | 42 | 100 | 93 | 10 | 18 | 210 | 0.00 | 0.00 | -0.9 | 43 |
| 08/28 23:00 | 40 | 43 | 100 | 92 | 8 | 16 | 202 | 0.00 | 0.00 | -0.6 | 44 |
| 08/28 22:00 | 42 | 44 | 100 | 90 | 7 | 15 | 227 | 0.00 | 0.00 | -0.8 | 45 |
| 08/28 21:00 | 42 | 45 | 100 | 89 | 9 | 18 | 234 | 0.00 | 0.00 | -0.7 | 46 |
| 08/28 20:00 | 43 | 46 | 100 | 87 | 13 | 19 | 251 | 0.00 | 0.00 | -0.6 | 46 |
| 08/28 19:00 | 46 | 48 | 91 | 77 | 14 | 24 | 243 | 0.00 | 0.00 | -1.0 | 49 |
| 08/28 18:00 | 48 | 51 | 89 | 71 | 14 | 24 | 235 | 0.00 | 0.00 | -1.4 | 54 |
| 08/28 17:00 | 50 | 56 | 77 | 59 | 12 | 21 | 228 | 0.00 | 0.00 | -0.4 | 70 |
| 08/28 16:00 | 51 | 57 | 72 | 56 | 11 | 22 | 226 | 0.00 | 0.00 | -1.2 | 65 |
| 08/28 15:00 | 52 | 57 | 68 | 55 | 8 | 20 | 233 | 0.00 | 0.00 | -1.0 | 75 |
| 08/28 14:00 | 53 | 59 | 64 | 56 | 9 | 17 | 222 | 0.00 | 0.00 | -1.6 | 77 |
| 08/28 13:00 | 50 | 55 | 72 | 64 | 9 | 14 | 216 | 0.00 | 0.00 | -1.2 | 72 |
| 08/28 12:00 | 47 | 52 | 81 | 70 | 5 | 11 | 236 | 0.00 | 0.00 | -1.0 | 71 |
| 08/28 11:00 | 46 | 47 | 83 | 81 | 3 | 15 | 268 | 0.00 | 0.00 | -0.6 | 62 |
| 08/28 10:00 | 43 | 46 | 93 | 86 | 2 | 11 | 303 | 0.00 | 0.00 | -1.3 | 52 |
| 08/28 09:00 | 48 | 44 | 55 | 89 | 2 | 8 | 327 | 0.00 | 0.00 | -1.0 | 49 |
| 08/28 08:00 | 46 | 42 | 53 | 93 | 8 | 11 | 308 | 0.00 | 0.00 | -0.9 | 44 |
| 08/28 07:00 | 45 | 41 | 63 | 93 | 9 | 15 | 297 | 0.00 | 0.00 | -0.5 | 42 |
| 08/28 06:00 | 42 | 41 | 91 | 93 | 9 | 13 | 294 | 0.00 | 0.00 | -0.8 | 41 |
| 08/28 05:00 | 40 | 42 | 100 | 90 | 2 | 11 | 278 | 0.00 | 0.00 | -0.7 | 41 |
| 08/28 04:00 | 40 | 43 | 100 | 90 | 1 | 8 | 259 | 0.00 | 0.00 | -0.3 | 43 |
| 08/28 03:00 | 41 | 43 | 100 | 91 | 8 | 12 | 283 | 0.00 | 0.00 | -0.3 | 44 |
| 08/28 02:00 | 41 | 44 | 100 | 89 | 8 | 12 | 279 | 0.00 | 0.00 | -0.8 | 44 |
| 08/28 01:00 | 41 | 44 | 100 | 89 | 1 | 8 | 264 | 0.00 | 0.00 | -1.3 | 45 |
| 08/28 00:00 | 42 | 45 | 100 | 91 | 6 | 15 | 270 | 0.00 | 0.00 | -0.9 | 45 |
| 08/27 23:00 | 42 | 45 | 100 | 89 | 13 | 20 | 287 | 0.00 | 0.00 | -0.9 | 45 |
| 08/27 22:00 | 42 | 46 | 100 | 89 | 9 | 16 | 265 | 0.00 | 0.00 | -0.7 | 46 |
| 08/27 21:00 | 43 | 47 | 100 | 86 | 8 | 12 | 259 | 0.00 | 0.00 | -0.5 | 47 |
| 08/27 20:00 | 44 | 48 | 100 | 81 | 10 | 16 | 219 | 0.00 | 0.00 | -1.0 | 48 |
| 08/27 19:00 | 45 | 49 | 93 | 76 | 11 | 18 | 219 | 0.00 | 0.00 | -0.4 | 51 |
| 08/27 18:00 | 47 | 51 | 85 | 69 | 10 | 22 | 232 | 0.00 | 0.00 | -1.3 | 54 |
| 08/27 17:00 | 48 | 51 | 81 | 72 | 3 | 13 | 267 | 0.00 | 0.00 | -0.9 | 54 |
| 08/27 16:00 | 48 | 52 | 81 | 69 | 7 | 15 | 263 | 0.00 | 0.00 | -0.3 | 58 |
| 08/27 15:00 | 49 | 53 | 77 | 64 | 7 | 20 | 237 | 0.00 | 0.00 | -1.0 | 61 |
| 08/27 14:00 | 48 | 55 | 74 | 62 | 9 | 21 | 227 | 0.00 | 0.00 | -1.1 | 64 |
| 08/27 13:00 | 48 | 55 | 75 | 62 | 7 | 17 | 234 | 0.00 | 0.00 | -1.4 | 68 |
| 08/27 12:00 | 46 | 50 | 82 | 72 | 7 | 17 | 196 | 0.00 | 0.00 | -0.7 | 60 |
| 08/27 11:00 | 44 | 49 | 89 | 79 | 10 | 26 | 199 | 0.00 | 0.00 | -0.7 | 63 |
| 08/27 10:00 | 42 | 46 | 100 | 91 | 11 | 25 | 240 | 0.00 | 0.00 | -0.6 | 49 |
| 08/27 09:00 | 44 | 46 | 100 | 92 | 15 | 33 | 243 | 0.00 | 0.00 | -0.3 | 49 |
| 08/27 08:00 | 44 | 46 | 100 | 94 | 20 | 46 | 236 | 0.00 | 0.00 | -0.1 | 48 |
| 08/27 07:00 | 44 | 46 | 100 | 93 | 24 | 45 | 238 | 0.00 | 0.00 | -0.6 | 47 |
| 08/27 06:00 | 45 | 47 | 100 | 91 | 25 | 43 | 338 | 0.00 | 0.00 | -0.7 | 47 |
| 08/27 05:00 | 47 | 48 | 87 | 87 | 28 | 52 | 0 | 0.00 | 0.00 | -0.6 | 48 |
| 08/27 04:00 | 47 | 49 | 98 | 84 | 13 | 42 | 0 | 0.00 | 0.00 | -0.5 | 48 |
| 08/27 03:00 | 47 | 49 | 93 | 84 | 16 | 37 | 360 | 0.00 | 0.00 | -0.3 | 48 |
| 08/27 02:00 | 48 | 50 | 86 | 80 | 14 | 32 | 360 | 0.00 | 0.00 | -1.1 | 49 |
| 08/27 01:00 | 48 | 50 | 87 | 80 | 15 | 38 | 360 | 0.00 | 0.00 | -0.9 | 49 |
| 08/27 00:00 | 50 | 51 | 79 | 77 | 23 | 46 | 360 | 0.00 | 0.00 | -0.9 | 50 |
| 08/26 23:00 | 50 | 52 | 78 | 73 | 13 | 26 | 360 | 0.00 | 0.00 | -1.1 | 51 |
| 08/26 22:00 | 52 | 53 | 74 | 72 | 13 | 27 | 360 | 0.00 | 0.00 | -1.3 | 52 |
| 08/26 21:00 | 54 | 53 | 63 | 72 | 17 | 42 | 0 | 0.00 | 0.00 | -0.9 | 51 |
| 08/26 20:00 | 53 | 55 | 70 | 66 | 9 | 33 | 0 | 0.00 | 0.00 | -0.5 | 54 |
| 08/26 19:00 | 57 | 59 | 59 | 56 | 14 | 34 | 0 | 0.00 | 0.00 | -0.5 | 60 |
| 08/26 18:00 | 60 | 62 | 51 | 49 | 12 | 28 | 0 | 0.00 | 0.00 | -0.9 | 66 |
| 08/26 17:00 | 62 | 66 | 42 | 40 | 11 | 25 | 0 | 0.00 | 0.00 | -0.7 | 79 |
| 08/26 16:00 | 61 | 67 | 44 | 38 | 15 | 31 | 0 | 0.00 | 0.00 | -0.6 | 74 |
| 08/26 15:00 | 62 | 68 | 45 | 40 | 12 | 34 | 0 | 0.00 | 0.00 | -1.2 | 84 |
| 08/26 14:00 | 61 | 69 | 49 | 42 | 10 | 26 | 0 | 0.00 | 0.00 | -1.5 | 84 |
| 08/26 13:00 | 60 | 68 | 46 | 41 | 6 | 21 | 0 | 0.00 | 0.00 | -1.0 | 85 |
| 08/26 12:00 | 61 | 67 | 40 | 40 | 5 | 19 | 0 | 0.00 | 0.00 | -0.6 | 86 |
| 08/26 11:00 | 63 | 65 | 27 | 37 | 9 | 20 | 0 | 0.00 | 0.00 | -1.2 | 85 |
| 08/26 10:00 | 61 | 63 | 18 | 34 | 11 | 17 | 0 | 0.00 | 0.00 | -0.9 | 65 |
| 08/26 09:00 | 61 | 62 | 14 | 30 | 11 | 15 | 0 | 0.00 | 0.00 | -0.8 | 64 |
| 08/26 08:00 | 61 | 60 | 15 | 38 | 15 | 22 | 0 | 0.00 | 0.00 | -0.7 | 61 |
| 08/26 07:00 | 61 | 59 | 12 | 25 | 14 | 19 | 360 | 0.00 | 0.00 | -1.1 | 56 |
| 08/26 06:00 | 60 | 58 | 15 | 33 | 15 | 19 | 360 | 0.00 | 0.00 | -1.4 | 54 |
| 08/26 05:00 | 60 | 57 | 17 | 44 | 16 | 24 | 0 | 0.00 | 0.00 | -0.7 | 54 |
| 08/26 04:00 | 61 | 57 | 21 | 50 | 21 | 33 | 0 | 0.00 | 0.00 | -1.0 | 54 |
| 08/26 03:00 | 61 | 57 | 20 | 57 | 21 | 29 | 360 | 0.00 | 0.00 | -0.9 | 53 |
| 08/26 02:00 | 61 | 57 | 25 | 52 | 23 | 29 | 0 | 0.00 | 0.00 | -0.6 | 54 |
| 08/26 01:00 | 58 | 55 | 54 | 81 | 10 | 21 | 0 | 0.00 | 0.00 | -0.6 | 52 |
| 08/26 00:00 | 56 | 55 | 75 | 79 | 7 | 15 | 0 | 0.00 | 0.00 | -1.0 | 52 |
| 08/25 23:00 | 57 | 56 | 71 | 79 | 5 | 15 | 0 | 0.00 | 0.00 | -0.9 | 54 |
| 08/25 22:00 | 55 | 58 | 84 | 74 | 11 | 15 | 0 | 0.00 | 0.00 | -1.1 | 55 |
| 08/25 21:00 | 57 | 58 | 77 | 73 | 12 | 19 | 0 | 0.00 | 0.00 | -1.0 | 56 |
| 08/25 20:00 | 59 | 62 | 69 | 64 | 9 | 18 | 0 | 0.00 | 0.00 | -0.6 | 60 |
| 08/25 19:00 | 64 | 65 | 56 | 55 | 10 | 21 | 0 | 0.00 | 0.00 | -0.9 | 66 |
| 08/25 18:00 | 64 | 68 | 52 | 46 | 11 | 19 | 0 | 0.00 | 0.00 | -1.3 | 72 |
| 08/25 17:00 | 69 | 72 | 42 | 39 | 9 | 22 | 0 | 0.00 | 0.00 | -1.0 | 85 |
| 08/25 16:00 | 71 | 76 | 33 | 32 | 10 | 26 | 0 | 0.00 | 0.00 | -1.1 | 85 |
| 08/25 15:00 | 72 | 75 | 26 | 28 | 9 | 26 | 20 | 0.00 | 0.00 | -0.8 | 88 |
| 08/25 14:00 | 74 | 74 | 23 | 25 | 16 | 32 | 89 | 0.00 | 0.00 | -1.2 | 90 |
| 08/25 13:00 | 69 | 75 | 26 | 26 | 15 | 39 | 129 | 0.00 | 0.00 | -1.0 | 89 |
| 08/25 12:00 | 71 | 70 | 26 | 30 | 11 | 20 | 84 | 0.00 | 0.00 | -1.2 | 86 |
| 08/25 11:00 | 66 | 66 | 31 | 35 | 12 | 19 | 87 | 0.00 | 0.00 | -0.4 | 82 |
| 08/25 10:00 | 64 | 63 | 33 | 38 | 13 | 17 | 81 | 0.00 | 0.00 | -0.3 | 64 |
| 08/25 09:00 | 61 | 61 | 34 | 37 | 13 | 18 | 77 | 0.00 | 0.00 | -0.7 | 62 |
| 08/25 08:00 | 60 | 59 | 31 | 39 | 15 | 18 | 76 | 0.00 | 0.00 | -0.9 | 60 |
| 08/25 07:00 | 58 | 58 | 34 | 39 | 9 | 16 | 77 | 0.00 | 0.00 | -0.9 | 58 |
| 08/25 06:00 | 61 | 60 | 30 | 35 | 11 | 14 | 109 | 0.00 | 0.00 | -0.9 | 57 |
| 08/25 05:00 | 60 | 60 | 31 | 35 | 13 | 17 | 103 | 0.00 | 0.00 | -0.7 | 57 |
| 08/25 04:00 | 59 | 59 | 34 | 37 | 17 | 22 | 95 | 0.00 | 0.00 | -0.4 | 56 |
| 08/25 03:00 | 57 | 58 | 36 | 42 | 16 | 20 | 76 | 0.00 | 0.00 | -0.3 | 56 |
| 08/25 02:00 | 57 | 58 | 36 | 41 | 17 | 24 | 74 | 0.00 | 0.00 | -0.5 | 56 |
| 08/25 01:00 | 56 | 59 | 42 | 43 | 13 | 18 | 73 | 0.00 | 0.00 | -0.5 | 57 |
| 08/25 00:00 | 56 | 59 | 46 | 45 | 16 | 20 | 76 | 0.00 | 0.00 | -0.5 | 57 |
| 08/24 23:00 | 56 | 59 | 49 | 45 | 14 | 19 | 75 | 0.00 | 0.00 | -0.5 | 58 |
| 08/24 22:00 | 57 | 60 | 48 | 45 | 15 | 20 | 69 | 0.00 | 0.00 | -0.6 | 58 |
| 08/24 21:00 | 57 | 60 | 48 | 44 | 17 | 25 | 69 | 0.00 | 0.00 | -0.5 | 60 |

